UTTI current weather conditions

sailwx.info

Wind from 120 at 16 knots

Air temperature 3.0° C
Dewpoint -6.0° C

Last reported at 2015-Mar-27 10:20 UTC.
Time now 2015-Mar-27 12:00 UTC

Location: N 60°54' E 026°56'.
View on Google Maps.

See reports from other nearby stations

  
Tides and Currents Weather Stations Pressure Air Temp Water Temp Dewpoint Dewpoint Depression Visibility Wind Speed Wind Dir Waves Ship Positions
date/time (UTC)wind fromknots sea level pressurealtimeterstation pressurevisibilityair tempwater tempwave heightnotes
2015-Mar-27 10:20 120 16 3.0
2015-Mar-27 09:50 120 16 3.0
2015-Mar-27 09:20 120 12 3.0
2015-Mar-27 08:50 120 16 2.0
2015-Mar-27 08:20 110 17 1.0
2015-Mar-27 07:50 120 16 gusting 25 1.0
2015-Mar-27 07:20 110 15 -0.0
2015-Mar-27 06:50 120 15 -0.0
2015-Mar-27 06:20 110 15 -0.0
2015-Mar-27 05:50 110 16 -1.0
2015-Mar-27 05:20 110 15 -1.0
2015-Mar-27 04:50 100 15 -2.0
2015-Mar-27 04:20 110 12 -2.0
2015-Mar-27 03:50 110 14 -2.0
2015-Mar-27 03:20 110 12 -2.0
2015-Mar-27 02:50 110 13 -2.0
2015-Mar-27 02:20 110 13 -2.0
2015-Mar-27 01:50 110 13 -2.0
2015-Mar-27 01:20 110 13 -2.0
2015-Mar-27 00:50 110 13 -2.0
2015-Mar-27 00:20 110 13 -2.0
2015-Mar-26 23:50 110 13 -2.0
2015-Mar-26 23:20 110 12 -2.0
2015-Mar-26 22:50 110 14 -2.0
2015-Mar-26 22:20 100 15 -2.0
2015-Mar-26 21:50 100 14 -2.0
2015-Mar-26 21:20 100 13 -2.0
2015-Mar-26 20:50 100 13 -2.0
2015-Mar-26 20:20 100 13 -2.0
2015-Mar-26 19:50 100 13 -2.0
2015-Mar-26 19:20 100 12 -2.0
2015-Mar-26 18:50 100 13 -2.0
2015-Mar-26 18:20 100 13 -2.0
2015-Mar-26 17:50 090 13 -1.0
2015-Mar-26 17:20 090 12 -1.0
2015-Mar-26 16:50 100 10 -1.0
2015-Mar-26 16:20 100 12 1.0
2015-Mar-26 15:50 100 12 1.0
2015-Mar-26 15:20 110 12 2.0
2015-Mar-26 14:50 100 11 2.0
2015-Mar-26 14:20 110 13 2.0
2015-Mar-26 13:50 110 14 2.0
2015-Mar-26 13:20 110 13 2.0
2015-Mar-26 12:50 110 11 2.0
2015-Mar-26 12:20 130 12 2.0
2015-Mar-26 11:50 120 13 2.0
2015-Mar-26 11:20 130 11 1.0
2015-Mar-26 10:50 130 11 1.0
2015-Mar-26 10:20 100 11 1.0
2015-Mar-26 09:50 120 13 1.0
2015-Mar-26 09:20 100 13 1.0
2015-Mar-26 08:50 130 14 -0.0
2015-Mar-26 08:20 120 13 -0.0
2015-Mar-26 07:50 110 15 -1.0
2015-Mar-26 07:20 100 12 -1.0
2015-Mar-26 06:50 100 9 -2.0
2015-Mar-26 06:20 100 8 -3.0
2015-Mar-26 05:50 090 8 -4.0
2015-Mar-26 05:20 090 7 -5.0
2015-Mar-26 04:50 090 7 -6.0
2015-Mar-26 04:20 090 7 -7.0
2015-Mar-26 03:50 080 6 -7.0
2015-Mar-26 03:20 090 7 -7.0
2015-Mar-26 02:50 080 7 -7.0
2015-Mar-26 02:20 080 7 -6.0
2015-Mar-26 01:50 080 6 -6.0
2015-Mar-26 01:20 080 5 -6.0
2015-Mar-26 00:50 070 4 -6.0
2015-Mar-26 00:20 070 4 -7.0
2015-Mar-25 23:50 070 4 -6.0
2015-Mar-25 23:20 080 5 -6.0
2015-Mar-25 22:50 070 5 -6.0
2015-Mar-25 22:20 070 5 -6.0
2015-Mar-25 21:50 070 5 -6.0
2015-Mar-25 21:20 070 5 -5.0
2015-Mar-25 20:50 080 5 -5.0
2015-Mar-25 20:20 070 6 -4.0
2015-Mar-25 19:50 060 6 -3.0
2015-Mar-25 19:20 060 6 -3.0
2015-Mar-25 18:50 050 5 -2.0
2015-Mar-25 18:20 050 5 -3.0
2015-Mar-25 17:50 040 4 -2.0
2015-Mar-25 17:20 040 4 -2.0
2015-Mar-25 16:50 050 4 -2.0
2015-Mar-25 16:20 060 5 -1.0
2015-Mar-25 15:50 070 6 -1.0
2015-Mar-25 15:20 080 7 -1.0
2015-Mar-25 14:50 070 9 -0.0
2015-Mar-25 14:20 080 8 -0.0
2015-Mar-25 13:50 050 9 -0.0
2015-Mar-25 13:20 080 7 -0.0
2015-Mar-25 12:50 080 9 -0.0
2015-Mar-25 12:20 070 8 -0.0